SCP
0 0 0 0 1 1 1 1 0 0 0 0 0 0 0 0 0 0 0 0 0 0 0 0 0 0 0 0 0 0 0 0 0 0 0 0 0 0 0 0 0 0 0
0 0 0 0 0 0 0 0 0 0 0 0 0 0 0 0 0 0 0 0 0 0 0 0 0 0 0 0 0 0 0 0 0 0 0 0 0 0 0 0 0 0 0
0 0 0 0 0 0 0 0 0 0 0 0 0 0 0 0 0 0 0 0 0 0 0 0 0 0 0 0 0 0 0 0 0 0 0 0 0 0 0 0 0 0 0
0 0 0 0 0 0 0 0 0 0 0 0 0 0 0 0 0 0 0 0 0 0 0 0 0 0 0 0 0 0 0 0 0 0 0 0 0 0 0 0 0 0 0
0 0 0 0 0 0 0 0 0 0 0 0 0 0 0 0 0 0 0 0 0 0 0 0 0 0 0 0 0 0 0 0 0 0 0 0 0 0 0 0 0 0 0
0 0 0 0 0 0 0 0 0 0 0 0 0 0 0 0 0 0 0 0 0 0 0 0 0 0 0 0 0 0 0 0 0 0 0 0 0 0 0 0 0 0 0
0 0 0 0 0 0 0 0 0 0 0 0 0 0 0 0 0 0 0 0 0 0 0 0 0 0 0 0 0 0 0 0 0 0 0 0 0 0 0 0 0 0 0
0 0 0 0 0 0 0 0 0 0 0 0 0 0 0 0 0 0 0 0 0 0 0 0 0 0 0 0 0 0 0 0 0 0 0 0 0 0 0 0 0 0 0
0 0 0 0 0 0 0 0 0 0 0 0 0 0 0 0 0 0 0 0 0 0 0 0 0 0 0 0 0 0 0 0 0 0 0 0 0 0 0 0 0 0 0
0 0 0 0 0 0 0 0 0 0 0 0 0 0 0 0 0 0 0 0 0 0 0 0 0 0 0 0 0 0 0 0 0 0 0 0 0 0 0 0 0 0 0
0 0 0 0 0 0 0 0 0 0 0 0 0 0 0 0 0 0 0 0 0 0 0 0 0 0 0 0 0 0 0 0 0 0 0 0 0 0 0 0 0 0 0
0 0 0 0 0 0 0 0 0 0 0 0 0 0 0 0 0 0 0 0 0 0 0 0 0 0 0 0 0 0 0 0 0 0 0 0 0 0 0 0 0 0 0
0 0 0 0 0 0 0 0 0 0 0 0 0 0 0 0 0 0 0 0 0 0 0 0 0 0 0 0 0 0 0 0 0 0 0 0 0 0 0 0 0 0 0
0 0 0 0 0 0 0 0 0 0 0 0 0 0 0 0 0 0 0 0 0 0 0 0 0 0 0 0 0 0 0 0 0 0 0 0 0 0 0 0 0 0 0
0 0 0 0 0 0 0 0 0 0 0 0 0 0 0 0 0 0 0 0 0 0 0 0 0 0 0 0 0 0 0 0 0 0 0 0 0 0 0 0 0 0 0
0 0 0 0 0 0 0 0 0 0 0 0 0 0 0 0 0 0 0 0 0 0 0 0 0 0 0 0 0 0 0 0 0 0 0 0 0 0 0 0 0 0 0
0 0 0 0 0 0 0 0 0 0 0 0 0 0 0 0 0 0 0 0 0 0 0 0 0 0 0 0 0 0 0 0 0 0 0 0 0 0 0 0 0 0 0
0 0 0 0 0 0 0 0 0 0 0 0 0 0 0 0 0 0 0 0 0 0 0 0 0 0 0 0 0 0 0 0 0 0 0 0 0 0 0 0 0 0 0
0 0 0 0 0 0 0 0 0 0 0 0 0 0 0 0 0 0 0 0 0 0 0 0 0 0 0 0 0 0 0 0 0 0 0 0 0 0 0 0 0 0 0
0 0 0 0 0 0 0 0 0 0 0 0 0 0 0 0 0 0 0 0 0 0 0 0 0 0 0 0 0 0 0 0 0 0 0 0 0 0 0 0 0 0 0
0 0 0 0 0 0 0 0 0 0 0 0 0 0 0 0 0 0 0 0 0 0 0 0 0 0 0 0 0 0 0 0 0 0 0 0 0 0 0 0 0 0 0
0 0 0 0 0 0 0 0 0 0 0 0 0 0 0 0 0 0 0 0 0 0 0 0 0 0 0 0 0 0 0 0 0 0 0 0 0 0 0 0 0 0 0
0 0 0 0 0 0 0 0 0 0 0 0 0 0 0 0 0 0 0 0 0 0 0 0 0 0 0 0 0 0 0 0 0 0 0 0 0 0 0 0 0 0 0
0 0 0 0 0 0 0 0 0 0 0 0 0 0 0 0 0 0 0 0 0 0 0 0 0 0 0 0 0 0 0 0 0 0 0 0 0 0 0 0 0 0 0
0 0 0 0 0 0 0 0 0 0 0 0 0 0 0 0 0 0 0 0 0 0 0 0 0 0 0 0 0 0 0 0 0 0 0 0 0 0 0 0 0 0 0
0 0 0 0 0 0 0 0 0 0 0 0 0 0 0 0 0 0 0 0 0 0 0 0 0 0 0 0 0 0 0 0 0 0 0 0 0 0 0 0 0 0 0
Wind_Speed
5 3 2 3 4 4 5 5 5 5 4 4 4 4 4 4 3 3 5 5 5 6 5 4 5 5 4 5 6 5 5 3 3 3 2 2 2 2 2 1 2 2 2
3 3 2 2 4 5 5 5 5 5 5 4 4 4 4 4 3 3 4 5 5 6 5 6 5 5 4 5 6 5 4 3 2 2 2 2 2 1 1 1 1 1 1
4 3 3 4 4 5 6 5 6 6 5 5 4 4 4 3 3 4 4 5 6 6 6 6 5 5 5 5 5 6 6 4 3 2 2 2 2 2 2 1 1 1 1
4 3 3 3 4 4 4 5 6 6 6 6 6 7 6 5 5 4 4 5 5 6 6 6 6 5 5 5 5 5 4 5 4 3 1 1 0 2 2 2 1 1 1
4 4 3 3 3 3 3 4 6 6 6 6 7 7 6 5 4 5 5 5 5 5 5 6 5 5 4 5 5 5 5 4 4 4 3 2 1 1 2 2 2 1 1
4 3 3 2 1 1 2 3 5 6 6 7 7 7 7 6 6 6 5 4 4 4 5 5 5 5 4 5 5 5 6 5 5 4 3 3 3 3 2 2 2 2 1
4 4 4 3 2 1 2 3 4 5 6 6 7 7 7 7 7 7 6 5 4 4 5 5 5 5 5 5 5 5 5 6 6 5 4 3 3 2 2 2 2 2 1
5 4 4 4 3 2 2 2 4 4 4 5 6 6 6 5 5 6 5 6 5 5 5 6 5 5 5 5 5 4 5 5 5 5 5 3 3 3 3 3 2 2 2
6 5 4 4 3 2 2 2 3 3 4 4 5 5 6 6 6 6 6 5 5 4 6 6 6 5 5 5 5 4 5 5 5 5 5 4 3 3 3 3 3 3 3
7 6 5 5 4 3 2 2 3 3 3 3 4 3 5 6 5 5 6 5 6 5 6 6 6 6 6 5 5 4 5 5 5 4 5 5 3 3 3 3 3 3 3
7 6 6 5 5 4 2 2 2 2 2 3 3 4 4 5 5 5 6 6 5 6 6 7 6 6 6 6 5 5 5 6 5 5 5 5 4 3 3 3 3 3 3
7 6 5 5 5 4 3 2 2 2 2 2 3 4 4 4 5 5 5 6 6 6 6 6 6 6 6 6 6 6 5 6 6 6 6 6 4 5 4 3 4 3 3
7 6 6 5 5 4 3 2 2 2 2 2 3 3 4 4 4 4 5 5 5 5 5 6 6 6 6 6 6 6 6 6 6 6 6 6 5 5 4 4 4 3 3
8 7 7 6 6 5 4 4 3 2 2 2 2 3 4 4 4 4 4 4 4 5 5 5 6 6 6 6 6 6 6 6 6 5 5 5 6 6 5 4 4 3 3
9 9 8 7 7 6 6 5 4 3 2 2 2 2 3 3 3 3 3 4 4 4 4 5 5 5 5 5 6 6 6 6 5 5 5 4 4 4 4 3 4 4 3
10 9 8 8 7 7 6 6 4 3 2 2 2 2 1 1 2 2 3 3 3 3 4 4 4 4 4 5 6 6 5 5 5 5 4 4 4 4 4 3 3 3 4
10 9 8 8 7 7 6 6 5 4 2 2 2 2 1 1 2 2 3 3 3 3 3 4 4 4 4 6 6 6 5 5 5 5 4 3 3 5 4 4 4 2 2
11 10 8 8 8 7 6 6 5 3 2 2 2 2 1 1 1 2 3 3 3 3 3 3 3 3 3 5 6 6 5 4 4 5 5 5 5 5 5 4 3 2 1
11 9 8 8 7 7 6 6 4 3 2 2 3 2 2 2 2 2 2 2 3 3 3 3 3 3 3 5 6 6 4 4 4 3 4 5 5 6 7 5 5 3 2
10 9 8 7 7 7 6 5 4 3 3 3 3 3 3 2 3 3 2 2 2 3 2 2 2 3 3 5 6 6 4 4 4 3 3 4 5 7 8 6 5 5 4
11 10 8 6 6 7 6 5 5 5 5 4 4 3 2 2 2 2 2 2 2 3 3 2 2 2 3 4 5 5 4 4 4 3 3 3 6 7 7 5 4 4 4
10 9 7 6 6 6 6 5 5 6 5 4 3 3 2 2 1 1 1 2 3 3 3 3 2 1 2 3 4 5 4 3 4 3 3 3 6 6 6 4 5 5 4
9 7 7 7 6 6 5 5 6 5 5 4 3 3 2 1 1 1 1 2 2 2 3 3 3 2 1 2 3 4 4 4 3 3 4 5 6 5 4 4 5 5 3
7 6 6 7 7 7 6 5 6 5 4 3 3 3 2 2 1 0 1 1 2 2 3 3 3 2 2 2 2 3 3 4 3 3 5 6 5 3 3 4 3 2 2
6 6 6 6 7 7 7 6 6 5 4 3 3 3 2 2 1 1 1 0 1 1 2 3 3 3 3 3 4 3 3 3 3 4 3 3 3 3 2 2 2 1 2
6 6 6 6 7 7 7 7 6 5 4 3 2 2 2 1 1 1 1 3 1 2 1 0 1 2 2 3 4 4 4 5 6 4 3 3 3 3 3 3 2 2 2
Wind_Direction
248 231 220 207 192 179 173 170 164 160 160 161 166 168 166 161 161 160 161 167 168 169 167 161 159 167 168 167 163 152 149 145 146 139 119 96 78 70 59 65 93 95 92
254 233 219 204 197 189 181 175 174 170 170 173 173 175 168 167 164 160 167 168 170 169 170 169 165 169 165 163 166 163 159 150 173 184 170 167 157 112 57 62 88 101 107
255 245 226 213 204 197 192 185 180 174 174 168 160 150 152 152 161 170 176 178 176 174 173 175 170 169 170 172 177 180 177 168 174 204 215 198 190 151 137 111 96 90 100
276 264 250 228 214 209 195 192 182 176 176 173 171 168 171 173 179 179 178 176 175 176 177 177 174 173 178 179 183 188 189 182 179 182 241 306 93 186 168 163 141 97 60
292 284 273 259 229 212 193 191 183 177 175 177 178 178 176 175 171 169 170 169 172 177 178 180 178 178 182 185 185 186 192 194 193 184 182 187 190 227 213 195 183 180 172
320 313 316 313 279 227 201 189 183 180 178 182 184 185 181 175 168 171 171 170 168 175 179 181 182 182 183 188 191 194 197 198 199 195 192 194 197 198 209 212 210 214 193
336 337 340 331 316 262 214 199 182 180 183 186 187 190 190 185 181 180 180 175 173 178 184 181 184 183 187 191 191 195 202 202 200 200 202 209 220 209 213 207 209 234 233
344 339 342 330 318 285 245 211 194 188 184 187 191 192 193 191 190 188 184 187 186 186 183 183 186 186 186 186 189 195 203 201 202 204 204 207 211 204 206 204 204 220 224
345 336 335 337 331 312 266 237 206 197 191 192 194 193 196 196 194 190 189 189 188 183 182 182 184 187 189 190 189 197 200 200 205 207 205 210 206 210 213 207 213 215 221
346 340 334 341 337 326 287 250 218 202 198 198 199 201 202 201 196 191 190 191 189 182 183 186 189 188 190 193 192 195 199 201 205 206 205 208 208 205 208 210 221 232 233
343 340 340 340 339 336 332 279 241 220 209 206 206 203 202 201 195 192 194 195 191 186 188 192 192 191 192 193 194 198 197 204 206 204 207 210 210 206 207 208 212 219 223
345 344 346 347 342 344 344 327 297 253 234 225 221 208 201 198 195 194 197 196 193 193 194 192 194 195 194 197 199 200 201 207 209 206 206 211 207 213 212 208 212 214 214
347 349 351 352 349 345 342 329 316 302 279 240 226 212 198 198 198 197 197 196 193 192 194 194 195 198 198 199 202 203 202 207 210 207 207 210 206 211 210 210 211 208 204
350 352 351 349 346 344 344 336 327 315 299 265 235 223 209 206 206 201 197 195 192 191 192 196 197 199 200 200 198 200 203 204 207 209 210 210 207 211 207 207 209 201 196
350 349 347 344 341 341 340 336 330 327 316 288 256 246 231 210 201 197 194 192 191 194 194 194 197 199 199 199 196 196 200 201 201 203 206 206 200 203 203 201 202 194 193
344 341 340 340 337 336 331 330 327 324 317 297 278 273 259 218 200 194 190 190 188 191 193 198 198 200 202 189 193 194 193 195 193 192 191 187 183 175 173 179 185 194 195
335 334 333 334 330 327 323 321 320 315 308 298 292 283 266 243 224 200 191 193 188 183 194 203 201 204 197 184 187 187 189 192 190 188 184 175 165 164 165 156 150 163 193
333 330 328 329 326 326 326 323 320 316 309 307 308 293 280 268 252 219 202 198 192 191 194 199 201 195 185 176 176 174 188 188 191 192 188 181 178 174 166 158 157 168 181
326 322 323 324 326 331 332 327 325 325 317 311 310 308 285 263 256 243 223 203 187 189 188 189 189 185 176 170 170 176 182 180 186 188 189 185 180 165 162 165 165 164 160
327 325 326 329 333 335 334 330 328 332 326 316 306 296 282 256 246 246 232 212 189 182 176 175 182 179 178 166 167 176 178 174 171 168 175 182 183 172 174 180 177 181 184
325 325 328 334 336 336 336 334 335 335 325 318 312 309 299 276 258 251 231 198 179 170 166 160 160 165 165 159 163 174 178 176 171 171 178 177 171 176 179 188 191 182 176
328 330 334 336 338 342 340 334 336 332 331 327 326 332 329 312 277 240 209 187 175 169 162 152 146 146 152 156 164 169 171 171 170 172 173 162 159 167 174 182 167 158 163
326 333 337 335 339 344 342 333 331 334 338 342 344 345 342 323 287 218 182 177 177 171 164 162 161 157 153 144 145 157 156 155 161 147 143 146 148 148 157 159 161 167 178
326 333 338 338 340 344 344 337 334 336 340 344 345 348 352 351 354 329 190 179 178 174 169 171 170 162 161 163 158 155 145 144 142 134 133 132 130 129 128 141 157 181 178
325 331 336 336 337 340 342 341 341 341 342 343 349 353 355 356 14 20 13 250 209 198 186 184 179 176 185 186 169 165 164 161 153 142 140 149 152 152 152 152 152 151 155
328 333 336 336 336 339 340 342 343 343 344 344 348 349 351 347 357 54 55 46 61 57 69 191 195 188 179 165 168 164 156 152 156 154 162 167 170 172 174 175 172 172 173